Date,TemperatureHighF,TemperatureAvgF,TemperatureLowF,DewpointHighF,DewpointAvgF,DewpointLowF,HumidityHigh,HumidityAvg,HumidityLow,PressureMaxIn,PressureMinIn,WindSpeedMaxMPH,WindSpeedAvgMPH,GustSpeedMaxMPH,PrecipitationSumIn
2013-5-1,42,34,28,-100,-100,-100,0,0,100,0.00,40.00,0,-999,0,0.38
2013-5-2,54,40,29,-100,-100,-100,0,0,100,0.00,40.00,0,-999,0,0.02
2013-5-3,61,50,38,-100,-100,-100,0,0,100,0.00,40.00,0,-999,0,0.00
2013-5-4,49,46,41,-100,-100,-100,0,0,100,0.00,40.00,0,-999,0,0.17
2013-5-5,62,48,36,-100,-100,-100,0,0,100,0.00,40.00,0,-999,0,0.03
2013-5-6,68,54,41,-100,-100,-100,0,0,100,0.00,40.00,0,-999,0,0.00
2013-5-7,73,58,47,-100,-100,-100,0,0,100,0.00,40.00,0,-999,0,0.02
2013-5-8,66,56,48,-100,-100,-100,0,0,100,0.00,40.00,0,-999,0,0.02
2013-5-9,68,56,46,-100,-100,-100,0,0,100,0.00,40.00,0,-999,0,0.04
2013-5-10,66,54,45,-100,-100,-100,0,0,100,0.00,40.00,0,-999,0,0.07
2013-5-11,67,53,39,-100,-100,-100,0,0,100,0.00,40.00,0,-999,0,0.05
2013-5-12,78,67,53,-100,-100,-100,0,0,100,0.00,40.00,0,-999,0,0.00
2013-5-13,86,72,61,-100,-100,-100,0,0,100,0.00,40.00,0,-999,0,0.00
2013-5-14,77,66,50,-100,-100,-100,0,0,100,0.00,40.00,0,-999,0,0.00
2013-5-15,71,58,46,-100,-100,-100,0,0,100,0.00,40.00,0,-999,0,0.00
2013-5-16,66,56,49,-100,-100,-100,0,0,100,0.00,40.00,0,-999,0,0.07
2013-5-17,61,54,49,-100,-100,-100,0,0,100,0.00,40.00,0,-999,0,0.11
2013-5-18,56,50,45,-100,-100,-100,0,0,100,0.00,40.00,0,-999,0,0.36
2013-5-19,60,50,45,-100,-100,-100,0,0,100,0.00,40.00,0,-999,0,0.53
2013-5-20,53,47,44,-100,-100,-100,0,0,100,0.00,40.00,0,-999,0,1.04
2013-5-21,60,54,46,-100,-100,-100,0,0,100,0.00,40.00,0,-999,0,0.06
2013-5-22,59,51,41,-100,-100,-100,0,0,100,0.00,40.00,0,-999,0,0.00
2013-5-23,63,52,45,-100,-100,-100,0,0,100,0.00,40.00,0,-999,0,0.25
2013-5-24,70,57,47,-100,-100,-100,0,0,100,0.00,40.00,0,-999,0,0.01
2013-5-25,79,62,46,-100,-100,-100,0,0,100,0.00,40.00,0,-999,0,0.00
2013-5-26,75,59,44,-100,-100,-100,0,0,100,0.00,40.00,0,-999,0,0.04
2013-5-27,69,56,44,-100,-100,-100,0,0,100,0.00,40.00,0,-999,0,0.04
2013-5-28,70,54,42,-100,-100,-100,0,0,100,0.00,40.00,0,-999,0,0.02
2013-5-29,56,50,45,-100,-100,-100,0,0,100,0.00,40.00,0,-999,0,0.92
2013-5-30,48,48,48,-100,-100,-100,0,0,100,0.00,40.00,0,-999,0,0.95
2013-5-31,54,51,46,-100,-100,-100,0,0,100,0.00,40.00,0,-999,0,0.00